| time (UTC) | temp F | wind direction | speed MPH | gust MPH | rain 1hr in | rain 24hr in | rain mn in | humidity % | barometer mb |
| 20260905214131 | 92 | 23 | 4.0 | 5.0 | 0.00 | 0.00 | 0.00 | 63 | 1011.5 |
| 20260905213132 | 93 | 0 | 6.0 | 6.0 | 0.00 | 0.00 | 0.00 | 62 | 1011.5 |
| 20260905212132 | 93 | 23 | 2.0 | 5.0 | 0.00 | 0.00 | 0.00 | 62 | 1011.5 |
| 20260905211132 | 93 | 338 | 3.0 | 3.0 | 0.00 | 0.00 | 0.00 | 61 | 1011.8 |
| 20260905210132 | 94 | 23 | 5.0 | 6.0 | 0.00 | 0.00 | 0.00 | 60 | 1011.8 |
| 20260905205132 | 94 | 0 | 4.0 | 6.0 | 0.00 | 0.00 | 0.00 | 60 | 1011.8 |
| 20260905203133 | 95 | 338 | 3.0 | 4.0 | 0.00 | 0.00 | 0.00 | 58 | 1011.8 |
| 20260905202132 | 94 | 293 | 4.0 | 6.0 | 0.00 | 0.00 | 0.00 | 57 | 1011.8 |
| 20260905200131 | 96 | 293 | 5.0 | 5.0 | 0.00 | 0.00 | 0.00 | 56 | 1011.8 |
| 20260905195131 | 96 | 293 | 3.0 | 5.0 | 0.00 | 0.00 | 0.00 | 54 | 1011.8 |
| 20260905194132 | 96 | 270 | 2.0 | 5.0 | 0.00 | 0.00 | 0.00 | 56 | 1012.1 |
| 20260905193131 | 93 | 293 | 4.0 | 5.0 | 0.00 | 0.00 | 0.00 | 59 | 1012.1 |
| 20260905192132 | 96 | 293 | 6.0 | 6.0 | 0.00 | 0.00 | 0.00 | 55 | 1012.1 |
| 20260905191132 | 96 | 293 | 5.0 | 5.0 | 0.00 | 0.00 | 0.00 | 54 | 1012.5 |
| 20260905190132 | 97 | 293 | 3.0 | 5.0 | 0.00 | 0.00 | 0.00 | 54 | 1012.5 |
| 20260905185131 | 96 | 23 | 4.0 | 4.0 | 0.00 | 0.00 | 0.00 | 56 | 1012.5 |
| 20260905184131 | 93 | 315 | 3.0 | 4.0 | 0.00 | 0.00 | 0.00 | 61 | 1012.5 |
| 20260905183131 | 93 | 293 | 4.0 | 4.0 | 0.00 | 0.00 | 0.00 | 59 | 1012.8 |
| 20260905182131 | 95 | 293 | 4.0 | 5.0 | 0.00 | 0.00 | 0.00 | 57 | 1012.8 |
| 20260905181132 | 97 | 293 | 4.0 | 4.0 | 0.00 | 0.00 | 0.00 | 53 | 1012.8 |
| 20260905180131 | 96 | 270 | 2.0 | 4.0 | 0.00 | 0.00 | 0.00 | 51 | 1012.8 |
| 20260905174132 | 96 | 293 | 4.0 | 6.0 | 0.00 | 0.00 | 0.00 | 54 | 1012.8 |
| 20260905173132 | 96 | 315 | 4.0 | 5.0 | 0.00 | 0.00 | 0.00 | 54 | 1013.2 |
| 20260905172131 | 95 | 293 | 4.0 | 5.0 | 0.00 | 0.00 | 0.00 | 56 | 1013.2 |
| 20260905171131 | 96 | 270 | 4.0 | 4.0 | 0.00 | 0.00 | 0.00 | 55 | 1013.2 |
| 20260905170131 | 94 | 293 | 5.0 | 6.0 | 0.00 | 0.00 | 0.00 | 57 | 1013.2 |
| 20260905165132 | 95 | 270 | 2.0 | 3.0 | 0.00 | 0.00 | 0.00 | 60 | 1013.2 |
| 20260905164132 | 95 | 203 | 2.0 | 4.0 | 0.00 | 0.00 | 0.00 | 59 | 1013.2 |
| 20260905163132 | 94 | 293 | 4.0 | 4.0 | 0.00 | 0.00 | 0.00 | 59 | 1013.5 |
| 20260905162131 | 93 | 270 | 1.0 | 4.0 | 0.00 | 0.00 | 0.00 | 64 | 1013.2 |
| 20260905161132 | 94 | 225 | 2.0 | 2.0 | 0.00 | 0.00 | 0.00 | 61 | 1013.5 |
| 20260905160131 | 93 | 270 | 3.0 | 4.0 | 0.00 | 0.00 | 0.00 | 62 | 1013.5 |
| 20260905155132 | 91 | 248 | 2.0 | 3.0 | 0.00 | 0.00 | 0.00 | 67 | 1013.5 |
| 20260905154131 | 91 | 270 | 2.0 | 3.0 | 0.00 | 0.00 | 0.00 | 66 | 1013.5 |
| 20260905153132 | 91 | 293 | 3.0 | 3.0 | 0.00 | 0.00 | 0.00 | 67 | 1013.2 |
| 20260905152131 | 90 | 270 | 2.0 | 3.0 | 0.00 | 0.00 | 0.00 | 69 | 1013.2 |
| 20260905151132 | 89 | 270 | 2.0 | 2.0 | 0.00 | 0.00 | 0.00 | 67 | 1013.2 |
| 20260905150131 | 89 | 248 | 4.0 | 4.0 | 0.00 | 0.00 | 0.00 | 70 | 1013.2 |
| 20260905145131 | 87 | 225 | 3.0 | 3.0 | 0.00 | 0.00 | 0.00 | 72 | 1013.2 |
| 20260905144132 | 86 | 270 | 2.0 | 3.0 | 0.00 | 0.00 | 0.00 | 74 | 1013.2 |
| 20260905143132 | 85 | 293 | 4.0 | 4.0 | 0.00 | 0.00 | 0.00 | 75 | 1013.2 |
| 20260905142132 | 84 | 203 | 1.0 | 3.0 | 0.00 | 0.00 | 0.00 | 77 | 1013.2 |
| 20260905141131 | 83 | 248 | 2.0 | 2.0 | 0.00 | 0.00 | 0.00 | 77 | 1013.5 |
| 20260905140132 | 82 | 180 | 2.0 | 3.0 | 0.00 | 0.00 | 0.00 | 77 | 1013.2 |
| 20260905135131 | 82 | 225 | 3.0 | 3.0 | 0.00 | 0.00 | 0.00 | 77 | 1013.2 |
| 20260905134131 | 81 | 203 | 2.0 | 3.0 | 0.00 | 0.00 | 0.00 | 80 | 1013.2 |
| 20260905132131 | 79 | 180 | 3.0 | 3.0 | 0.00 | 0.00 | 0.00 | 81 | 1013.2 |
| 20260905131437 | 79 | 180 | 0.0 | 0.0 | 0.00 | 0.00 | 0.00 | 82 | 1013.5 |
| 20260905131132 | 79 | 180 | 0.0 | 0.0 | 0.00 | 0.00 | 0.00 | 82 | 1013.5 |
| 20260905130131 | 78 | 203 | 2.0 | 3.0 | 0.00 | 0.00 | 0.00 | 82 | 1013.2 |
| 20260905125132 | 78 | 203 | 0.0 | 2.0 | 0.00 | 0.00 | 0.00 | 83 | 1013.2 |
| 20260905124132 | 77 | 180 | 0.0 | 2.0 | 0.00 | 0.00 | 0.00 | 83 | 1013.2 |
| 20260905123131 | 77 | 180 | 2.0 | 2.0 | 0.00 | 0.00 | 0.00 | 83 | 1013.2 |
| 20260905122132 | 77 | 135 | 0.0 | 0.0 | 0.00 | 0.00 | 0.00 | 84 | 1013.2 |
| 20260905121132 | 77 | 180 | 0.0 | 0.0 | 0.00 | 0.00 | 0.00 | 85 | 1013.2 |
| 20260905120133 | 76 | 180 | 0.0 | 0.0 | 0.00 | 0.00 | 0.00 | 86 | 1012.8 |
| 20260905115133 | 76 | 180 | 0.0 | 0.0 | 0.00 | 0.00 | 0.00 | 86 | 1012.8 |
| 20260905114132 | 76 | 180 | 0.0 | 0.0 | 0.00 | 0.00 | 0.00 | 86 | 1012.8 |
| 20260905113132 | 76 | 180 | 0.0 | 0.0 | 0.00 | 0.00 | 0.00 | 86 | 1012.8 |
| 20260905112132 | 76 | 180 | 0.0 | 0.0 | 0.00 | 0.00 | 0.00 | 86 | 1012.5 |
| 20260905111132 | 76 | 203 | 0.0 | 0.0 | 0.00 | 0.00 | 0.00 | 86 | 1012.8 |
| 20260905110133 | 76 | 180 | 0.0 | 0.0 | 0.00 | 0.00 | 0.00 | 86 | 1012.5 |
| 20260905105132 | 76 | 180 | 0.0 | 0.0 | 0.00 | 0.00 | 0.00 | 86 | 1012.8 |
| 20260905104134 | 76 | 180 | 0.0 | 0.0 | 0.00 | 0.00 | 0.00 | 86 | 1012.8 |
| 20260905103132 | 76 | 180 | 0.0 | 0.0 | 0.00 | 0.00 | 0.00 | 86 | 1012.8 |
| 20260905102133 | 76 | 180 | 0.0 | 0.0 | 0.00 | 0.00 | 0.00 | 86 | 1012.8 |
| 20260905101132 | 76 | 225 | 0.0 | 0.0 | 0.00 | 0.00 | 0.00 | 86 | 1012.8 |
| 20260905095132 | 76 | 270 | 0.0 | 0.0 | 0.00 | 0.00 | 0.00 | 86 | 1012.8 |
| 20260905094132 | 76 | 180 | 0.0 | 0.0 | 0.00 | 0.00 | 0.00 | 86 | 1012.8 |
| 20260905093132 | 76 | 293 | 0.0 | 0.0 | 0.00 | 0.00 | 0.00 | 86 | 1012.8 |
| 20260905092132 | 76 | 180 | 0.0 | 2.0 | 0.00 | 0.00 | 0.00 | 86 | 1012.8 |
| 20260905091132 | 76 | 180 | 0.0 | 0.0 | 0.00 | 0.00 | 0.00 | 85 | 1012.8 |
| 20260905090132 | 76 | 203 | 0.0 | 2.0 | 0.00 | 0.00 | 0.00 | 85 | 1012.5 |
| 20260905085132 | 76 | 270 | 0.0 | 0.0 | 0.00 | 0.00 | 0.00 | 85 | 1012.5 |
| 20260905084132 | 77 | 180 | 0.0 | 0.0 | 0.00 | 0.00 | 0.00 | 84 | 1012.5 |
| 20260905083133 | 77 | 180 | 0.0 | 0.0 | 0.00 | 0.00 | 0.00 | 84 | 1012.5 |
| 20260905082132 | 77 | 158 | 0.0 | 0.0 | 0.00 | 0.00 | 0.00 | 84 | 1012.5 |
| 20260905081132 | 77 | 180 | 0.0 | 0.0 | 0.00 | 0.00 | 0.00 | 84 | 1012.5 |
| 20260905080132 | 77 | 180 | 0.0 | 0.0 | 0.00 | 0.00 | 0.00 | 84 | 1012.5 |
| 20260905075132 | 77 | 180 | 0.0 | 0.0 | 0.00 | 0.00 | 0.00 | 85 | 1012.1 |
| 20260905074132 | 77 | 203 | 0.0 | 0.0 | 0.00 | 0.00 | 0.00 | 85 | 1012.5 |
| 20260905073132 | 77 | 158 | 0.0 | 0.0 | 0.00 | 0.00 | 0.00 | 85 | 1012.5 |
| 20260905072132 | 77 | 180 | 0.0 | 0.0 | 0.00 | 0.00 | 0.00 | 85 | 1012.5 |
| 20260905071132 | 77 | 180 | 0.0 | 0.0 | 0.00 | 0.00 | 0.00 | 84 | 1012.8 |
| 20260905070132 | 77 | 180 | 0.0 | 0.0 | 0.00 | 0.00 | 0.00 | 84 | 1012.8 |
| 20260905065132 | 78 | 180 | 0.0 | 0.0 | 0.00 | 0.00 | 0.00 | 84 | 1012.8 |
| 20260905064132 | 78 | 180 | 0.0 | 0.0 | 0.00 | 0.00 | 0.00 | 84 | 1012.8 |
| 20260905063132 | 78 | 203 | 0.0 | 0.0 | 0.00 | 0.00 | 0.00 | 84 | 1012.8 |
| 20260905062132 | 78 | 158 | 0.0 | 0.0 | 0.00 | 0.00 | 0.00 | 84 | 1012.8 |
| 20260905061132 | 78 | 180 | 0.0 | 0.0 | 0.00 | 0.00 | 0.00 | 84 | 1012.8 |
| 20260905060132 | 78 | 293 | 0.0 | 0.0 | 0.00 | 0.00 | 0.00 | 83 | 1012.8 |
| 20260905055132 | 78 | 270 | 0.0 | 0.0 | 0.00 | 0.00 | 0.00 | 83 | 1012.8 |
| 20260905054132 | 78 | 225 | 0.0 | 0.0 | 0.00 | 0.00 | 0.00 | 82 | 1012.8 |
| 20260905053132 | 78 | 203 | 0.0 | 0.0 | 0.00 | 0.00 | 0.00 | 82 | 1012.8 |
| 20260905052132 | 78 | 203 | 0.0 | 0.0 | 0.00 | 0.00 | 0.00 | 81 | 1012.8 |
| 20260905051132 | 79 | 180 | 0.0 | 0.0 | 0.00 | 0.00 | 0.00 | 81 | 1012.8 |
| 20260905050132 | 79 | 203 | 0.0 | 0.0 | 0.00 | 0.00 | 0.00 | 80 | 1012.8 |
| 20260905045132 | 80 | 203 | 0.0 | 0.0 | 0.00 | 0.00 | 0.00 | 79 | 1013.2 |
| 20260905044132 | 80 | 315 | 0.0 | 0.0 | 0.00 | 0.00 | 0.00 | 79 | 1013.2 |
| 20260905042132 | 80 | 293 | 0.0 | 0.0 | 0.00 | 0.00 | 0.00 | 78 | 1013.2 |
| 20260905041132 | 81 | 180 | 0.0 | 0.0 | 0.00 | 0.00 | 0.00 | 78 | 1013.2 |
| 20260905040134 | 81 | 180 | 0.0 | 0.0 | 0.00 | 0.00 | 0.00 | 78 | 1013.2 |
| 20260905035132 | 81 | 180 | 0.0 | 0.0 | 0.00 | 0.00 | 0.00 | 77 | 1013.2 |
| 20260905035126 | 82 | 180 | 0.0 | 0.0 | 0.00 | 0.00 | 0.00 | 77 | 1013.2 |
| 20260905034132 | 82 | 180 | 0.0 | 0.0 | 0.00 | 0.00 | 0.00 | 77 | 1013.2 |
| 20260905033133 | 82 | 203 | 0.0 | 0.0 | 0.00 | 0.00 | 0.00 | 76 | 1013.2 |
| 20260905031132 | 83 | 0 | 0.0 | 0.0 | 0.00 | 0.00 | 0.00 | 75 | 1013.2 |
| 20260905030132 | 84 | 45 | 1.0 | 1.0 | 0.00 | 0.00 | 0.00 | 75 | 1013.2 |
| 20260905025132 | 84 | 158 | 0.0 | 2.0 | 0.00 | 0.00 | 0.00 | 74 | 1013.2 |
| 20260905024132 | 84 | 135 | 1.0 | 2.0 | 0.00 | 0.00 | 0.00 | 74 | 1013.2 |
| 20260905023132 | 84 | 135 | 0.0 | 2.0 | 0.00 | 0.00 | 0.00 | 74 | 1012.8 |
| 20260905022133 | 84 | 203 | 0.0 | 2.0 | 0.00 | 0.00 | 0.00 | 74 | 1012.8 |
| 20260905021132 | 84 | 68 | 2.0 | 2.0 | 0.00 | 0.00 | 0.00 | 75 | 1012.8 |
| 20260905020132 | 84 | 68 | 0.0 | 1.0 | 0.00 | 0.00 | 0.00 | 75 | 1012.8 |
| 20260905014132 | 85 | 180 | 0.0 | 2.0 | 0.00 | 0.00 | 0.00 | 71 | 1012.5 |
| 20260905013132 | 86 | 158 | 0.0 | 1.0 | 0.00 | 0.00 | 0.00 | 71 | 1012.5 |
| 20260905012132 | 86 | 180 | 0.0 | 2.0 | 0.00 | 0.00 | 0.00 | 69 | 1012.5 |
| 20260905010132 | 87 | 338 | 0.0 | 0.0 | 0.00 | 0.00 | 0.00 | 66 | 1012.1 |
| 20260905005131 | 87 | 90 | 0.0 | 2.0 | 0.00 | 0.00 | 0.00 | 67 | 1012.1 |
| 20260905004132 | 88 | 180 | 0.0 | 2.0 | 0.00 | 0.00 | 0.00 | 67 | 1012.1 |
| 20260905003132 | 88 | 45 | 2.0 | 2.0 | 0.00 | 0.00 | 0.00 | 68 | 1012.1 |
| 20260905002132 | 89 | 45 | 1.0 | 1.0 | 0.00 | 0.00 | 0.00 | 67 | 1012.1 |
| 20260905001133 | 90 | 158 | 0.0 | 0.0 | 0.00 | 0.00 | 0.00 | 64 | 1012.1 |
| 20260905000131 | 90 | 90 | 2.0 | 2.0 | 0.00 | 0.00 | 0.00 | 64 | 1012.1 |
| 20260904235132 | 91 | 135 | 0.0 | 2.0 | 0.00 | 0.00 | 0.00 | 63 | 1012.1 |
| 20260904234132 | 92 | 203 | 0.0 | 0.0 | 0.00 | 0.00 | 0.00 | 63 | 1012.1 |
| 20260904233132 | 92 | 45 | 0.0 | 0.0 | 0.00 | 0.00 | 0.00 | 61 | 1012.1 |
| 20260904232131 | 93 | 180 | 0.0 | 0.0 | 0.00 | 0.00 | 0.00 | 59 | 1012.1 |
| 20260904231132 | 93 | 225 | 0.0 | 0.0 | 0.00 | 0.00 | 0.00 | 57 | 1012.1 |
| 20260904230131 | 94 | 180 | 0.0 | 2.0 | 0.00 | 0.00 | 0.00 | 56 | 1012.1 |
| 20260904225132 | 94 | 180 | 0.0 | 3.0 | 0.00 | 0.00 | 0.00 | 55 | 1012.1 |
| 20260904224131 | 95 | 180 | 1.0 | 2.0 | 0.00 | 0.00 | 0.00 | 54 | 1012.1 |
| 20260904223131 | 95 | 225 | 1.0 | 3.0 | 0.00 | 0.00 | 0.00 | 54 | 1012.1 |
| 20260904222131 | 96 | 180 | 2.0 | 2.0 | 0.00 | 0.00 | 0.00 | 52 | 1011.8 |
| 20260904221131 | 96 | 225 | 2.0 | 2.0 | 0.00 | 0.00 | 0.00 | 51 | 1012.1 |
| 20260904220131 | 96 | 158 | 3.0 | 5.0 | 0.00 | 0.00 | 0.00 | 50 | 1012.1 |
| 20260904215132 | 97 | 248 | 2.0 | 5.0 | 0.00 | 0.00 | 0.00 | 48 | 1012.1 |